This is the latest recevied weather packets stored in our database for station/object M0HPP-13. If no packets are shown the sender has not sent any weather packets the latest 10 day(s).
| Time | Temp. | Humidity | Pressure | Rain* | Wind** | Luminosity | Snow |
|---|---|---|---|---|---|---|---|
| 1777648819 | 16.11° C | 66% | 1014.9 hPa | 0 mm | - | 241 W/m² | - |
| 1777648219 | 16.11° C | 68% | 1015.1 hPa | 0 mm | - | 363 W/m² | - |
| 1777647619 | 16.11° C | 68% | 1015.2 hPa | 0 mm | - | 357 W/m² | - |
| 1777647019 | 15° C | 70% | 1015.1 hPa | 0 mm | - | 290 W/m² | - |
| 1777646419 | 14.44° C | 69% | 1015.2 hPa | 0 mm | - | 92 W/m² | - |
| 1777645819 | 14.44° C | 69% | 1015.3 hPa | 0 mm | - | 120 W/m² | - |
| 1777645219 | 14.44° C | 69% | 1015.3 hPa | 0 mm | - | 197 W/m² | - |
| 1777643419 | 14.44° C | 68% | 1015.6 hPa | 0 mm | - | 154 W/m² | - |
| 1777642819 | 15.56° C | 66% | 1015.8 hPa | 0 mm | - | 308 W/m² | - |
| 1777642219 | 16.11° C | 67% | 1015.8 hPa | 0 mm | - | 381 W/m² | - |
| 1777641619 | 16.11° C | 68% | 1015.9 hPa | 0 mm | - | 506 W/m² | - |
| 1777641019 | 15° C | 68% | 1016.1 hPa | 0 mm | - | 391 W/m² | - |
| 1777640419 | 14.44° C | 69% | 1016 hPa | 0 mm | - | 381 W/m² | - |
| 1777639819 | 15° C | 70% | 1016 hPa | 0 mm | - | 273 W/m² | - |
| 1777639219 | 15° C | 71% | 1016.1 hPa | 0 mm | - | 307 W/m² | - |
| 1777638619 | 15.56° C | 68% | 1016.1 hPa | 0 mm | - | 207 W/m² | - |
| 1777638019 | 16.67° C | 63% | 1016.3 hPa | 0 mm | - | 191 W/m² | - |
| 1777637419 | 17.22° C | 56% | 1016.5 hPa | 0 mm | - | 140 W/m² | - |
| 1777636819 | 17.22° C | 56% | 1016.5 hPa | 0 mm | - | 160 W/m² | - |
| 1777636219 | 17.78° C | 55% | 1016.6 hPa | 0 mm | - | 248 W/m² | - |
| 1777635619 | 17.22° C | 56% | 1016.6 hPa | 0 mm | - | 312 W/m² | - |
| 1777635019 | 16.67° C | 57% | 1016.7 hPa | 0 mm | - | 375 W/m² | - |
| 1777634419 | 16.67° C | 59% | 1016.7 hPa | 0 mm | - | 341 W/m² | - |
| 1777633819 | 16.67° C | 60% | 1016.8 hPa | 0 mm | - | 357 W/m² | - |
| 1777633219 | 16.67° C | 56% | 1016.8 hPa | 0 mm | - | 385 W/m² | - |
* Rain latest hour (hover to see other rain measurements)
** Current wind speed in m/s (hover to see current wind gust speed)